Location: Torrington
(42.0650°N, 104.1810°W)
Time: 09:42:17
(UTC-06:00)

Amateur Radio Satellites - All Passes

Search period start: 24 May 2016 09:12
Search period end: 25 May 2016 09:12
Location: Torrington, 42.0650°N, 104.1810°W

Satellite Date Start Highest point End Downlink Frequencies (MHz)
Time Altitude Azimuth
SEEDS 24 May 09:16:20 09:20:35 72° 101° (E) 09:24:50 437.485
NOAA 18 24 May 09:16:59 09:18:23 11° 305° (NW) 09:19:48 137.9125
CUBEBUG 2 24 May 09:17:25 09:21:07 31° 96° (E) 09:24:50 437.445
Oscar 11 24 May 09:22:55 09:26:05 20° 93° (E) 09:29:15 145.826/435.025
PCSat 24 May 09:23:07 09:24:52 12° 102° (ESE) 09:26:36 145.827
UNISAT 6 24 May 09:25:06 09:28:05 18° 65° (ENE) 09:31:03 437.425
ZACube-1 24 May 09:29:28 09:32:32 20° 94° (E) 09:35:36 437.345
GONETS M04 24 May 09:31:24 09:40:06 67° 79° (E) 09:48:43
TIGRISAT 24 May 09:33:40 09:36:57 21° 66° (ENE) 09:40:11 435.000
CUTE 1.7 + AOD 2 24 May 09:33:54 09:38:04 52° 287° (WNW) 09:42:14 437.475
PRISM 24 May 09:35:05 09:37:54 18° 267° (W) 09:40:45 437.425
CINEMA 3 24 May 09:38:37 09:42:38 44° 288° (WNW) 09:46:33 145.822/145.860
DELFI C3 24 May 09:44:06 09:46:25 15° 92° (E) 09:48:44 145.870
SO-50 24 May 09:53:40 09:58:11 43° 50° (NE) 10:02:33 436.795
UWE-3 24 May 09:53:56 09:58:01 55° 100° (E) 10:02:09 435.000/436.395/437.385
AIST 1 24 May 10:01:27 10:04:58 24° 272° (W) 10:08:25
ANTELSAT 24 May 10:05:02 10:09:14 46° 72° (ENE) 10:13:23 437.575/2403.000
Cosmos 2499 24 May 10:07:39 10:16:08 70° 80° (E) 10:24:58 435.465 / 435.565
HO-68 24 May 10:08:08 10:14:58 49° 294° (WNW) 10:21:46 435.675
FUNcube-1 24 May 10:08:56 10:13:00 51° 100° (E) 10:17:07 145.935
COMPASS 1 24 May 10:09:54 10:13:50 39° 288° (WNW) 10:17:46 437.405
HUMSAT D 24 May 10:11:49 10:14:00 14° 91° (E) 10:16:11 437.325/437.525
AAUSAT CUBESAT 2 24 May 10:16:14 10:20:12 41° 288° (WNW) 10:24:09 437.432
NANOSAT C BR1 24 May 10:19:01 10:20:44 12° 62° (ENE) 10:22:26 145.865
AUBIESAT-1 24 May 10:19:31 10:21:05 13° 301° (WNW) 10:22:40 437.475
O/OREOS (USA 219) 24 May 10:21:30 10:25:58 55° 108° (ESE) 10:30:26 437.305
CUBEBUG 2 24 May 10:54:24 10:57:36 22° 293° (WNW) 11:00:49 437.445
SEEDS 24 May 10:54:25 10:55:42 11° 298° (WNW) 10:56:59 437.485
DUCHIFAT 1 24 May 10:57:14 11:00:52 29° 69° (ENE) 11:04:30 145.980
Oscar 11 24 May 10:58:20 11:02:20 37° 289° (WNW) 11:06:21 145.826/435.025
UNISAT 6 24 May 11:00:19 11:04:30 43° 261° (W) 11:08:39 437.425
PCSat 24 May 11:01:58 11:07:24 88° 121° (ESE) 11:12:52 145.827
ZACube-1 24 May 11:05:08 11:08:55 34° 289° (WNW) 11:12:44 437.345
TIGRISAT 24 May 11:09:21 11:13:25 36° 262° (W) 11:17:26 435.000
DELFI C3 24 May 11:17:40 11:21:30 43° 288° (WNW) 11:25:19 145.870
GONETS M04 24 May 11:29:23 11:36:08 26° 279° (W) 11:42:53
POPSAT HIP 1 24 May 11:30:16 11:34:30 74° 75° (ENE) 11:38:45 437.405
BUGSAT 1 24 May 11:31:01 11:34:47 32° 70° (ENE) 11:38:32 437.445
QB50P1 24 May 11:31:02 11:35:17 77° 77° (ENE) 11:39:32 145.935-145.965
QB50P2 24 May 11:31:58 11:36:14 83° 77° (ENE) 11:40:29 145.880/145.840
UWE-3 24 May 11:32:02 11:34:03 13° 296° (WNW) 11:36:03 435.000/436.395/437.385
POLYITAN 1 24 May 11:34:25 11:38:40 85° 76° (ENE) 11:42:55 437.675
SO-50 24 May 11:34:44 11:38:23 23° 248° (WSW) 11:41:56 436.795
JAS-2 24 May 11:39:09 11:45:03 27° 59° (ENE) 11:51:15 435.910
CUSAT 1 24 May 11:39:52 11:45:02 31° 85° (E) 11:51:13 437.405
AISAT 24 May 11:40:04 11:43:04 18° 93° (E) 11:46:03 437.250
ANTELSAT 24 May 11:43:28 11:46:10 16° 268° (W) 11:48:53 437.575/2403.000
HUMSAT D 24 May 11:45:54 11:49:54 48° 287° (WNW) 11:53:55 437.325/437.525
FUNcube-1 24 May 11:46:34 11:48:51 14° 296° (WNW) 11:51:08 145.935
NANOSAT C BR1 24 May 11:51:43 11:55:55 65° 258° (WSW) 12:00:08 145.865
Oscar 19 24 May 11:59:12 12:01:32 13° 58° (ENE) 12:03:52 437.125/150
Cosmos 2499 24 May 12:01:54 12:08:33 26° 278° (W) 12:15:24 435.465 / 435.565
ESTCUBE 1 24 May 12:01:56 12:06:18 43° 99° (E) 12:10:37 437.505/2401.250
O/OREOS (USA 219) 24 May 12:02:42 12:05:43 17° 306° (NW) 12:08:45 437.305
UKube-1 24 May 12:08:08 12:11:34 22° 95° (E) 12:14:57 .
BEESAT 3 24 May 12:24:50 12:28:33 42° 117° (ESE) 12:32:18 437.485
DUCHIFAT 1 24 May 12:33:04 12:36:32 24° 265° (W) 12:40:01 145.980
VELOX 1 24 May 12:39:44 12:44:11 74° 103° (ESE) 12:48:35 145.980
DANDE 24 May 12:42:03 12:46:47 42° 89° (E) 12:53:00 436.750
CUBEBUG 1 24 May 12:42:41 12:47:06 84° 103° (ESE) 12:51:28 437.445
DX 1 24 May 12:47:12 12:51:35 75° 103° (ESE) 12:55:55 434.975-435.025
PCSat 24 May 12:47:56 12:51:32 18° 319° (NW) 12:55:10 145.827
50 SAT 24 May 12:52:03 12:55:42 58° 286° (WNW) 12:59:22 437.505
BUGSAT 1 24 May 13:06:55 13:10:12 22° 266° (W) 13:13:28 437.445
AISAT 24 May 13:15:33 13:19:46 43° 289° (WNW) 13:23:55 437.250
BEESAT 2 24 May 13:20:06 13:24:04 83° 300° (WNW) 13:28:05 435.950
CUSAT 1 24 May 13:20:56 13:26:44 48° 288° (WNW) 13:33:55 437.405
JAS-2 24 May 13:22:10 13:29:18 70° 259° (WSW) 13:37:07 435.910
SPROUT 24 May 13:26:36 13:30:52 82° 283° (WNW) 13:35:07 437.525
Gurwin Techsat 1B 24 May 13:28:50 13:33:38 36° 68° (ENE) 13:38:26 435.225
Oscar 19 24 May 13:34:53 13:40:06 88° 256° (WSW) 13:45:20 437.125/150
ESTCUBE 1 24 May 13:39:31 13:42:47 20° 295° (WNW) 13:46:02 437.505/2401.250
UKube-1 24 May 13:43:47 13:47:39 33° 291° (WNW) 13:51:30 .
AO-7 24 May 13:54:42 14:00:41 23° 51° (NE) 14:06:42 29.400- 29.500
BEESAT 3 24 May 14:03:26 14:06:25 20° 315° (NW) 14:09:26 437.485
TISAT 1 24 May 14:04:19 14:08:30 71° 102° (ESE) 14:12:38 437.305
ITAMSAT 1 24 May 14:09:10 14:13:45 34° 67° (ENE) 14:18:22 435.822/435.867
VELOX 1 24 May 14:18:24 14:20:02 12° 299° (WNW) 14:21:40 145.980
CUBEBUG 1 24 May 14:21:58 14:22:42 10° 300° (WNW) 14:23:26 437.445
DANDE 24 May 14:25:21 14:29:56 28° 296° (WNW) 14:35:41 436.750
DX 1 24 May 14:25:43 14:27:09 11° 300° (WNW) 14:28:34 434.975-435.025
SWISSCUBE 24 May 14:38:52 14:43:13 33° 97° (E) 14:47:32 437.505
ITUPSAT 1 24 May 14:43:03 14:47:22 32° 97° (E) 14:51:41 437.325
Cosmos 2491 24 May 14:45:26 14:53:04 32° 68° (ENE) 15:00:36 435.465 / 435.565
YUBILEINY 24 May 14:54:10 14:56:36 11° 72° (ENE) 14:59:03 435.215
AIST 2 24 May 14:59:38 15:03:44 71° 122° (ESE) 15:07:52 435.215
BEESAT 2 24 May 15:01:05 15:02:34 12° 322° (NW) 15:04:04 435.950
BEESAT 24 May 15:08:46 15:13:31 61° 101° (ESE) 15:18:14 436.000
Gurwin Techsat 1B 24 May 15:08:59 15:13:35 30° 264° (W) 15:18:13 435.225
JAS-2 24 May 15:13:02 15:15:44 12° 278° (W) 15:18:31 435.910
AO-85 24 May 15:19:30 15:23:54 35° 48° (NE) 15:27:55 145.980
Oscar 19 24 May 15:19:31 15:20:08 10° 272° (W) 15:20:45 437.125/150
KKS-1 24 May 15:27:38 15:28:50 11° 89° (E) 15:30:01 437.445
TISAT 1 24 May 15:42:24 15:43:34 11° 299° (WNW) 15:44:43 437.305
AO-7 24 May 15:44:07 15:52:26 89° 254° (WSW) 16:00:48 29.400- 29.500
ITAMSAT 1 24 May 15:48:41 15:53:12 30° 264° (W) 15:57:46 435.822/435.867
HORYU 2 24 May 15:51:22 15:54:37 21° 65° (ENE) 15:57:53 437.375
STARS 24 May 16:11:34 16:14:27 17° 93° (E) 16:17:19 437.465
SWISSCUBE 24 May 16:16:51 16:20:52 27° 294° (WNW) 16:24:53 437.505
ITUPSAT 1 24 May 16:21:02 16:25:06 28° 293° (WNW) 16:29:09 437.325
NOAA 15 24 May 16:22:41 16:23:44 11° 56° (NE) 16:24:48 137.62
AIST 2 24 May 16:40:11 16:42:42 15° 320° (NW) 16:45:13 435.215
Cosmos 2491 24 May 16:41:50 16:50:22 59° 269° (W) 16:58:49 435.465 / 435.565
YUBILEINY 24 May 16:43:01 16:51:34 67° 93° (E) 17:00:10 435.215
BEESAT 24 May 16:47:54 16:50:48 16° 298° (WNW) 16:53:42 436.000
MOZHAYETS 4 24 May 16:51:12 16:55:49 69° 102° (ESE) 17:00:26
CUTE-I 24 May 16:59:43 17:02:51 16° 60° (ENE) 17:06:00 437.470
AO-85 24 May 17:00:21 17:04:12 27° 248° (WSW) 17:07:45 145.980
KKS-1 24 May 17:01:27 17:05:52 70° 286° (WNW) 17:10:16 437.445
LilacSat-2 24 May 17:15:02 17:16:34 12° 64° (ENE) 17:18:06 437.200
NOAA 18 24 May 17:20:28 17:25:12 31° 65° (ENE) 17:29:56 137.9125
HORYU 2 24 May 17:26:46 17:30:55 39° 261° (W) 17:35:05 437.375
RS-15 24 May 17:27:58 17:38:25 46° 109° (ESE) 17:49:22 29.354- 29.394
AO-7 24 May 17:40:57 17:46:14 18° 270° (W) 17:51:33 29.400- 29.500
STARS 24 May 17:46:52 17:51:01 43° 289° (WNW) 17:55:08 437.465
Cubesat XI-IV 24 May 17:49:56 17:54:55 43° 69° (ENE) 17:59:56 437.490
BRITE-PL 24 May 17:55:33 18:00:57 53° 71° (ENE) 18:06:30 437.365/2234.400
NOAA 15 24 May 17:57:18 18:02:34 73° 73° (ENE) 18:07:54 137.62
Cosmos 2504 24 May 18:01:04 18:08:01 56° 91° (E) 18:15:19 435.465 / 435.565
CUBESAT XI-V 24 May 18:07:05 18:11:41 49° 99° (E) 18:16:14 437.345
PCSat 24 May 18:07:30 18:10:35 15° 39° (NE) 18:13:40 145.827
DOVE 4 24 May 18:08:42 18:12:10 18° 64° (ENE) 18:15:33 437.250
MOZHAYETS 4 24 May 18:30:09 18:32:25 14° 298° (WNW) 18:34:41
CUTE-I 24 May 18:36:59 18:42:17 73° 257° (WSW) 18:47:37 437.470
GOMX 1 24 May 18:37:54 18:43:20 64° 73° (ENE) 18:48:43 467.674
YUBILEINY 24 May 18:41:56 18:49:03 28° 293° (WNW) 18:56:15 435.215
LilacSat-2 24 May 18:46:43 18:50:27 51° 260° (W) 18:54:10 437.200
HO-68 24 May 18:50:30 18:56:15 27° 59° (ENE) 19:02:00 435.675
O/OREOS (USA 219) 24 May 18:53:18 18:55:37 14° 51° (NE) 18:57:55 437.305
CUTE 1.7 + AOD 2 24 May 18:54:17 18:55:28 11° 62° (ENE) 18:56:39 437.475
NOAA 18 24 May 19:00:44 19:05:44 37° 262° (W) 19:10:46 137.9125
CINEMA 3 24 May 19:04:30 19:07:42 18° 65° (ENE) 19:10:50 145.822/145.860
COMPASS 1 24 May 19:27:33 19:29:32 13° 63° (ENE) 19:31:31 437.405
AUBIESAT-1 24 May 19:29:31 19:33:41 59° 70° (ENE) 19:37:34 437.475
Cubesat XI-IV 24 May 19:30:51 19:35:09 25° 266° (W) 19:39:28 437.490
M-CUBED/EXP-1 PRIME 24 May 19:33:02 19:37:21 81° 71° (ENE) 19:41:21 437.505
AAUSAT CUBESAT 2 24 May 19:33:44 19:35:27 12° 63° (ENE) 19:37:11 437.432
BRITE-PL 24 May 19:35:21 19:39:41 23° 269° (W) 19:44:07 437.365/2234.400
RS-15 24 May 19:39:22 19:50:35 58° 313° (NW) 20:02:28 29.354- 29.394
NOAA 15 24 May 19:40:08 19:42:53 14° 270° (W) 19:45:39 137.62
STRAND 1 24 May 19:40:56 19:45:39 36° 97° (E) 19:50:22 437.568
DOVE 4 24 May 19:44:09 19:49:23 63° 260° (W) 19:54:28 437.250
CUBESAT XI-V 24 May 19:45:25 19:48:41 19° 296° (WNW) 19:51:55 437.345
PCSat 24 May 19:49:28 19:54:56 76° 59° (ENE) 20:00:20 145.827
Cosmos 2504 24 May 19:55:56 20:01:52 27° 292° (WNW) 20:08:05 435.465 / 435.565
CANX-2 24 May 19:58:39 20:02:47 63° 75° (ENE) 20:06:58 2200.000
SEEDS 24 May 20:08:16 20:12:17 50° 73° (ENE) 20:16:21 437.485
CUBEBUG 2 24 May 20:15:54 20:19:42 29° 70° (ENE) 20:23:25 437.445
GOMX 1 24 May 20:18:09 20:21:46 18° 270° (W) 20:25:23 467.674
Oscar 11 24 May 20:18:40 20:21:25 17° 64° (ENE) 20:24:09 145.826/435.025
ZACube-1 24 May 20:26:14 20:29:02 17° 66° (ENE) 20:31:50 437.345
CUTE 1.7 + AOD 2 24 May 20:26:32 20:30:43 72° 259° (W) 20:34:56 437.475
O/OREOS (USA 219) 24 May 20:31:05 20:35:33 71° 250° (WSW) 20:39:59 437.305
HO-68 24 May 20:36:23 20:43:27 63° 257° (WSW) 20:50:34 435.675
CINEMA 3 24 May 20:39:48 20:44:30 51° 261° (W) 20:49:01 145.822/145.860
GONETS M04 24 May 20:41:44 20:45:52 14° 74° (ENE) 20:49:59
BEESAT 3 24 May 20:41:44 20:45:16 30° 49° (NE) 20:48:46 437.485
UWE-3 24 May 20:51:06 20:55:17 47° 73° (ENE) 20:59:22 435.000/436.395/437.385
AIST 1 24 May 20:54:22 20:57:11 17° 86° (E) 21:00:02
COMPASS 1 24 May 21:00:33 21:04:36 56° 260° (W) 21:08:43 437.405
FUNcube-1 24 May 21:04:46 21:08:46 41° 72° (ENE) 21:12:43 145.935
HUMSAT D 24 May 21:05:09 21:06:11 11° 62° (ENE) 21:07:13 437.325/437.525
AAUSAT CUBESAT 2 24 May 21:06:22 21:10:26 60° 260° (W) 21:14:33 437.432
AUBIESAT-1 24 May 21:06:45 21:08:23 12° 262° (W) 21:10:00 437.475
PRISM 24 May 21:14:35 21:18:44 59° 101° (E) 21:22:50 437.425
STRAND 1 24 May 21:20:19 21:24:42 29° 294° (WNW) 21:29:04 437.568
PCSat 24 May 21:34:40 21:37:38 15° 256° (WSW) 21:40:36 145.827
BEESAT 2 24 May 21:37:49 21:41:48 64° 56° (NE) 21:45:44 435.950
CANX-2 24 May 21:37:54 21:39:04 11° 271° (W) 21:40:14 2200.000
DANDE 24 May 21:40:54 21:42:03 10° 51° (NE) 21:43:11 436.750
SEEDS 24 May 21:46:12 21:48:17 14° 269° (W) 21:50:24 437.485
CUBEBUG 2 24 May 21:52:36 21:56:18 26° 265° (W) 21:59:56 437.445
Oscar 11 24 May 21:53:03 21:57:11 46° 261° (W) 22:01:20 145.826/435.025
RS-15 24 May 21:56:59 22:06:28 27° 344° (NNW) 22:16:17 29.354- 29.394
ZACube-1 24 May 22:00:58 22:05:02 42° 261° (W) 22:09:03 437.345
DELFI C3 24 May 22:03:30 22:07:26 73° 258° (WSW) 22:11:26 145.870
CUSAT 1 24 May 22:13:37 22:20:20 29° 65° (ENE) 22:26:20 437.405
BEESAT 3 24 May 22:19:35 22:22:52 25° 246° (WSW) 22:26:08 437.485
UWE-3 24 May 22:29:26 22:31:59 15° 268° (W) 22:34:30 435.000/436.395/437.385
AIST 1 24 May 22:30:16 22:34:25 41° 283° (WNW) 22:38:37
GONETS M04 24 May 22:32:20 22:41:06 76° 94° (E) 22:49:52
HUMSAT D 24 May 22:37:11 22:41:16 69° 259° (W) 22:45:20 437.325/437.525
AISAT 24 May 22:38:05 22:41:08 18° 64° (ENE) 22:44:09 437.250
FUNcube-1 24 May 22:42:27 22:45:12 17° 267° (W) 22:47:55 145.935
Cosmos 2499 24 May 22:45:14 22:52:08 53° 90° (E) 22:59:30 435.465 / 435.565
ISS 24 May 22:47:22 22:50:32 51° 141° (SE) 22:53:44 145.825
UNISAT 6 24 May 22:51:20 22:55:17 34° 98° (E) 22:59:13 437.425
PRISM 24 May 22:51:34 22:53:32 13° 298° (WNW) 22:55:30 437.425
TIGRISAT 24 May 22:59:56 23:03:59 40° 98° (E) 23:08:03 435.000
PHONESAT 2.4 24 May 23:00:26 23:01:59 13° 150° (SSE) 23:03:32 2401.200-2431.200
ESTCUBE 1 24 May 23:01:43 23:05:57 41° 71° (ENE) 23:10:13 437.505/2401.250
UKube-1 24 May 23:03:18 23:06:34 21° 66° (ENE) 23:09:51 .
POPSAT HIP 1 24 May 23:17:01 23:18:17 11° 90° (E) 23:19:34 437.405
QB50P1 24 May 23:17:32 23:19:02 12° 90° (E) 23:20:32 145.935-145.965
BEESAT 2 24 May 23:17:47 23:19:05 11° 252° (WSW) 23:20:23 435.950
QB50P2 24 May 23:18:19 23:20:13 13° 91° (E) 23:22:07 145.880/145.840
DANDE 24 May 23:19:04 23:27:08 47° 72° (ENE) 23:34:44 436.750
AIST 2 24 May 23:20:37 23:24:41 51° 53° (NE) 23:28:43 435.215
POLYITAN 1 24 May 23:20:42 23:22:40 13° 91° (E) 23:24:37 437.675
50 SAT 24 May 23:30:24 23:33:59 63° 74° (ENE) 23:37:36 437.505
ANTELSAT 24 May 23:32:27 23:36:44 82° 285° (WNW) 23:41:05 437.575/2403.000
NANOSAT C BR1 24 May 23:36:34 23:39:32 19° 93° (E) 23:42:29 145.865
VELOX 1 24 May 23:37:04 23:41:30 69° 74° (ENE) 23:45:57 145.980
CUBEBUG 1 24 May 23:38:35 23:42:59 72° 75° (ENE) 23:47:26 437.445
DX 1 24 May 23:42:44 23:47:05 68° 74° (ENE) 23:51:28 434.975-435.025
CUSAT 1 24 May 23:55:15 00:03:04 62° 266° (W) 00:09:44 437.405
SO-50 25 May 00:10:38 00:12:45 13° 107° (ESE) 00:14:53 436.795
AISAT 25 May 00:12:56 00:17:14 46° 261° (W) 00:21:34 437.250
RS-15 25 May 00:14:27 00:24:27 28° 20° (NNE) 00:34:34 29.354- 29.394
DUCHIFAT 1 25 May 00:15:53 00:19:56 48° 100° (E) 00:23:57 145.980
SPROUT 25 May 00:20:08 00:24:27 78° 74° (ENE) 00:28:45 437.525
ISS 25 May 00:24:17 00:27:08 27° 338° (NNW) 00:29:59 145.825
UNISAT 6 25 May 00:28:33 00:31:48 21° 293° (WNW) 00:35:04 437.425
GONETS M04 25 May 00:32:03 00:38:50 24° 295° (WNW) 00:45:40
JAS-2 25 May 00:33:22 00:38:43 21° 87° (E) 00:43:41 435.910
PHONESAT 2.4 25 May 00:35:16 00:38:16 42° 165° (SSE) 00:41:16 2401.200-2431.200
TIGRISAT 25 May 00:37:26 00:40:23 19° 295° (WNW) 00:43:22 435.000
UKube-1 25 May 00:38:23 00:42:22 36° 262° (W) 00:46:24 .
Cosmos 2499 25 May 00:39:30 00:45:38 29° 292° (WNW) 00:52:10 435.465 / 435.565
ESTCUBE 1 25 May 00:39:43 00:42:56 19° 267° (W) 00:46:10 437.505/2401.250
BUGSAT 1 25 May 00:47:17 00:51:15 50° 100° (E) 00:55:09 437.445
POPSAT HIP 1 25 May 00:50:19 00:54:29 62° 286° (WNW) 00:58:36 437.405
QB50P1 25 May 00:51:03 00:55:12 59° 286° (WNW) 00:59:19 145.935-145.965
QB50P2 25 May 00:52:14 00:56:22 54° 286° (WNW) 01:00:27 145.880/145.840
POLYITAN 1 25 May 00:54:41 00:58:47 53° 287° (WNW) 01:02:52 437.675
TISAT 1 25 May 00:56:02 01:00:10 55° 73° (ENE) 01:04:19 437.305
AIST 2 25 May 01:00:17 01:02:45 16° 250° (WSW) 01:05:14 435.215
DANDE 25 May 01:02:08 01:09:55 43° 271° (W) 01:17:13 436.750
NANOSAT C BR1 25 May 01:11:32 01:15:23 37° 289° (WNW) 01:19:14 145.865
VELOX 1 25 May 01:16:58 01:18:25 11° 270° (W) 01:19:52 145.980
CUBEBUG 1 25 May 01:18:45 01:19:46 11° 271° (W) 01:20:46 437.445
DX 1 25 May 01:22:26 01:23:44 11° 270° (W) 01:25:02 434.975-435.025
CUSAT 1 25 May 01:41:36 01:43:20 11° 287° (WNW) 01:45:02 437.405
SWISSCUBE 25 May 01:45:38 01:50:04 40° 70° (ENE) 01:54:30 437.505
Gurwin Techsat 1B 25 May 01:46:09 01:48:34 13° 89° (E) 01:50:58 435.225
Oscar 19 25 May 01:46:25 01:51:01 31° 96° (E) 01:55:33 437.125/150
SO-50 25 May 01:47:40 01:52:35 82° 305° (NW) 01:57:31 436.795
ITUPSAT 1 25 May 01:50:06 01:54:31 40° 70° (ENE) 01:58:59 437.325
DUCHIFAT 1 25 May 01:52:47 01:55:14 15° 296° (WNW) 01:57:42 145.980
ISS 25 May 02:02:21 02:04:23 15° 358° (N) 02:06:25 145.825
PHONESAT 2.4 25 May 02:11:46 02:14:53 66° 181° (S) 02:17:59 2401.200-2431.200
BEESAT 25 May 02:15:22 02:20:06 73° 74° (ENE) 02:24:51 436.000
JAS-2 25 May 02:16:55 02:24:33 77° 288° (WNW) 02:31:24 435.910
BUGSAT 1 25 May 02:24:04 02:26:12 14° 296° (WNW) 02:28:18 437.445
ITAMSAT 1 25 May 02:24:06 02:25:12 11° 88° (E) 02:26:19 435.822/435.867
KKS-1 25 May 02:26:12 02:28:00 12° 61° (ENE) 02:29:49 437.445
RS-15 25 May 02:27:52 02:40:05 63° 50° (NE) 02:52:16 29.354- 29.394
TISAT 1 25 May 02:34:11 02:36:08 13° 269° (W) 02:38:08 437.305
YUBILEINY 25 May 02:52:52 03:00:36 34° 69° (ENE) 03:08:19 435.215
STARS 25 May 03:08:52 03:11:47 18° 64° (ENE) 03:14:43 437.465
Gurwin Techsat 1B 25 May 03:23:46 03:29:06 79° 286° (WNW) 03:34:25 435.225
SWISSCUBE 25 May 03:24:22 03:28:00 22° 266° (W) 03:31:40 437.505
Oscar 19 25 May 03:25:44 03:30:18 32° 293° (WNW) 03:34:49 437.125/150
ITUPSAT 1 25 May 03:28:49 03:32:30 22° 266° (W) 03:36:12 437.325
SO-50 25 May 03:30:52 03:33:50 16° 323° (NW) 03:36:47 436.795
ISS 25 May 03:38:59 03:41:41 23° 19° (NNE) 03:44:23 145.825
AO-7 25 May 03:45:51 03:52:58 30° 95° (E) 04:00:01 29.400- 29.500
Cosmos 2491 25 May 03:47:25 03:55:09 36° 85° (E) 04:02:52 435.465 / 435.565
PHONESAT 2.4 25 May 03:48:33 03:51:26 34° 198° (SSW) 03:54:19 2401.200-2431.200
Cosmos 2504 25 May 03:52:19 03:58:39 23° 66° (ENE) 04:05:11 435.465 / 435.565
MOZHAYETS 4 25 May 03:53:14 03:57:44 67° 74° (ENE) 04:02:17
BEESAT 25 May 03:56:40 03:58:24 12° 271° (W) 04:00:08 436.000
KKS-1 25 May 03:59:29 04:03:58 73° 259° (WSW) 04:08:27 437.445
ITAMSAT 1 25 May 04:00:07 04:05:22 90° 95° (E) 04:10:36 435.822/435.867
JAS-2 25 May 04:03:46 04:08:12 17° 308° (NW) 04:12:27 435.910
RS-15 25 May 04:40:58 04:52:09 43° 252° (WSW) 05:03:16 29.354- 29.394
STARS 25 May 04:43:32 04:47:47 47° 260° (W) 04:52:04 437.465
YUBILEINY 25 May 04:49:19 04:57:46 56° 270° (W) 05:06:13 435.215
Gurwin Techsat 1B 25 May 05:06:35 05:08:10 11° 303° (WNW) 05:09:44 435.225
CUBESAT XI-V 25 May 05:10:32 05:15:01 49° 72° (ENE) 05:19:34 437.345
ISS 25 May 05:15:09 05:18:24 71° 217° (SW) 05:21:38 145.825
HORYU 2 25 May 05:17:01 05:21:06 35° 98° (E) 05:25:11 437.375
MOZHAYETS 4 25 May 05:33:38 05:35:22 12° 271° (W) 05:37:07
AO-85 25 May 05:36:07 05:38:25 13° 106° (ESE) 05:40:44 145.980
AO-7 25 May 05:37:58 05:46:11 63° 294° (WNW) 05:54:23 29.400- 29.500
ITAMSAT 1 25 May 05:41:49 05:44:04 13° 302° (WNW) 05:46:19 435.822/435.867
Cosmos 2491 25 May 05:43:05 05:51:38 52° 284° (WNW) 06:00:13 435.465 / 435.565
NOAA 18 25 May 05:44:05 05:45:45 11° 89° (E) 05:47:24 137.9125
Cosmos 2504 25 May 05:44:31 05:52:51 80° 265° (W) 06:01:39 435.465 / 435.565
BRITE-PL 25 May 06:02:00 06:05:09 16° 88° (E) 06:08:10 437.365/2234.400
Cubesat XI-IV 25 May 06:07:47 06:11:04 16° 91° (E) 06:14:21 437.490
NOAA 15 25 May 06:12:36 06:17:01 26° 95° (E) 06:21:24 137.62
LilacSat-2 25 May 06:20:41 06:23:00 15° 92° (E) 06:25:18 437.200
GOMX 1 25 May 06:41:19 06:44:22 17° 90° (E) 06:47:16 467.674
CUBESAT XI-V 25 May 06:49:38 06:52:42 17° 269° (W) 06:55:45 437.345
CUTE-I 25 May 06:53:39 06:58:45 43° 99° (E) 07:03:49 437.470
HORYU 2 25 May 06:54:01 06:57:27 22° 294° (WNW) 07:00:52 437.375
STRAND 1 25 May 06:57:06 07:02:02 53° 72° (ENE) 07:07:01 437.568
AO-85 25 May 07:12:44 07:18:12 87° 123° (ESE) 07:23:36 145.980
NOAA 18 25 May 07:21:37 07:27:07 89° 97° (E) 07:32:37 137.9125
AO-7 25 May 07:32:58 07:37:20 16° 315° (NW) 07:41:43 29.400- 29.500
BRITE-PL 25 May 07:38:58 07:44:09 59° 287° (WNW) 07:48:53 437.365/2234.400
Cosmos 2504 25 May 07:40:32 07:44:58 16° 283° (WNW) 07:49:31 435.465 / 435.565
DOVE 4 25 May 07:43:32 07:47:34 33° 96° (E) 07:51:24 437.250
CANX-2 25 May 07:45:48 07:46:48 11° 89° (E) 07:47:47 2200.000
Cubesat XI-IV 25 May 07:46:17 07:51:35 65° 287° (WNW) 07:56:53 437.490
NOAA 15 25 May 07:51:57 07:56:54 40° 292° (WNW) 08:01:48 137.62
LilacSat-2 25 May 07:53:58 07:57:27 35° 288° (WNW) 08:00:54 437.200
PRISM 25 May 08:04:13 08:08:09 44° 72° (ENE) 08:12:08 437.425
HO-68 25 May 08:04:15 08:09:59 25° 93° (E) 08:15:41 435.675
CUTE 1.7 + AOD 2 25 May 08:11:47 08:14:51 19° 93° (E) 08:17:55 437.475
GOMX 1 25 May 08:18:11 08:22:49 48° 288° (WNW) 08:27:08 467.674
CUTE-I 25 May 08:34:11 08:38:33 26° 295° (WNW) 08:42:53 437.470
CINEMA 3 25 May 08:34:22 08:38:11 33° 97° (E) 08:41:56 145.822/145.860
Cosmos 2499 25 May 08:35:14 08:41:31 22° 64° (ENE) 08:47:56 435.465 / 435.565
AIST 1 25 May 08:36:37 08:40:52 47° 78° (ENE) 08:45:02
STRAND 1 25 May 08:38:03 08:41:32 18° 268° (W) 08:45:03 437.568
SO-50 25 May 08:39:33 08:42:39 17° 38° (NE) 08:45:40 436.795
GONETS M04 25 May 08:42:26 08:50:26 38° 71° (ENE) 08:58:21
AUBIESAT-1 25 May 08:42:41 08:45:43 32° 103° (ESE) 08:48:42 437.475
COMPASS 1 25 May 08:43:28 08:46:45 22° 94° (E) 08:50:01 437.405
M-CUBED/EXP-1 PRIME 25 May 08:46:48 08:50:00 47° 105° (ESE) 08:53:09 437.505
AAUSAT CUBESAT 2 25 May 08:48:52 08:51:59 20° 93° (E) 08:55:05 437.432
AO-85 25 May 08:55:30 08:59:22 20° 321° (NW) 09:03:11 145.980
NOAA 18 25 May 09:04:19 09:07:00 14° 303° (WNW) 09:09:40 137.9125
O/OREOS (USA 219) 25 May 09:07:18 09:09:11 12° 98° (E) 09:11:04 437.305
